This is the latest recevied weather packets stored in our database for station/object EA1ZE. If no packets are shown the sender has not sent any weather packets the latest 1 day(s).
| Time | Temp. | Humidity | Pressure | Rain* | Wind** | Luminosity | Snow |
|---|---|---|---|---|---|---|---|
| 1836274694 | 18.89° C | 83% | 1017.4 hPa | 0 mm | 1.79 m/s, 168° | - | - |
| 1778031012 | 6.11° C | 88% | 1014 hPa | 0 mm | 0 m/s | - | - |
| 1778030103 | 6.11° C | 88% | 1014.1 hPa | 0 mm | 0 m/s | - | - |
| 1778029203 | 6.11° C | 88% | 1014.1 hPa | 0 mm | 0.45 m/s, 101° | - | - |
| 1778028360 | 6.67° C | 87% | 1014.2 hPa | 0 mm | 0.45 m/s, 101° | - | - |
| 1778027459 | 6.67° C | 87% | 1014.3 hPa | 0 mm | 0.45 m/s, 100° | - | - |
| 1778026577 | 6.67° C | 86% | 1014.3 hPa | 0 mm | 0 m/s | - | - |
| 1778025654 | 6.67° C | 85% | 1014.4 hPa | 0 mm | 0 m/s | - | - |
| 1778024753 | 7.22° C | 85% | 1014.5 hPa | 0 mm | 0 m/s | - | - |
| 1778023856 | 7.22° C | 86% | 1014.5 hPa | 0 mm | 0.45 m/s, 105° | - | - |
| 1778022954 | 7.22° C | 85% | 1014.6 hPa | 0 mm | 0 m/s | - | - |
| 1778022047 | 7.78° C | 85% | 1014.6 hPa | 0 mm | 0 m/s | - | - |
| 1778021148 | 7.78° C | 84% | 1014.7 hPa | 0 mm | 0.89 m/s, 105° | - | - |
| 1778020249 | 7.78° C | 83% | 1014.8 hPa | 0 mm | 0.45 m/s, 93° | - | - |
| 1778019347 | 8.33° C | 82% | 1014.7 hPa | 0 mm | 0 m/s | - | - |
| 1778018442 | 8.33° C | 82% | 1014.8 hPa | 0 mm | 0 m/s | - | - |
| 1778017555 | 8.33° C | 81% | 1014.7 hPa | 0 mm | 0 m/s | - | - |
| 1778016652 | 8.89° C | 81% | 1014.7 hPa | 0 mm | 0 m/s | - | - |
| 1778015737 | 8.89° C | 81% | 1014.7 hPa | 0 mm | 0 m/s | - | - |
| 1778014836 | 8.89° C | 80% | 1014.7 hPa | 0 mm | 0 m/s | - | - |
| 1778013985 | 9.44° C | 78% | 1014.6 hPa | 0 mm | 0.45 m/s, 360° | - | - |
| 1778013079 | 9.44° C | 77% | 1014.4 hPa | 0 mm | 0.89 m/s, 205° | - | - |
| 1778012193 | 10° C | 76% | 1014.4 hPa | 0 mm | 0 m/s | - | - |
| 1778011296 | 10° C | 73% | 1014.2 hPa | 0 mm | 0 m/s | - | - |
| 1778010404 | 10° C | 74% | 1014 hPa | 0 mm | 0 m/s | - | - |
* Rain latest hour (hover to see other rain measurements)
** Current wind speed in m/s (hover to see current wind gust speed)